Satellite: CO-57
Catalog number: 27848
Epoch time:      09267.57168255
Element set:     624
Inclination:      098.7174 deg
RA of node:       274.4070 deg
Eccentricity:    0.0009120
Arg of perigee:   219.2762 deg
Mean anomaly:     140.7756 deg
Mean motion:   14.20456540 rev/day
Decay rate:        1.0e-07 rev/day^2
Epoch rev:           32333
Checksum:              304

Satellite: AO-51
Catalog number: 28375
Epoch time:      09266.51937236
Element set:     492
Inclination:      098.0549 deg
RA of node:       270.4054 deg
Eccentricity:    0.0083127
Arg of perigee:   186.1857 deg
Mean anomaly:     173.8318 deg
Mean motion:   14.40652751 rev/day
Decay rate:        4.0e-08 rev/day^2
Epoch rev:           27511
Checksum:              317

Satellite: CO-56
Catalog number: 28941
Epoch time:      09267.69582761
Element set:     470
Inclination:      098.1266 deg
RA of node:       101.9850 deg
Eccentricity:    0.0048113
Arg of perigee:   111.2465 deg
Mean anomaly:     249.3966 deg
Mean motion:   16.01352507 rev/day
Decay rate:    1.94003e-03 rev/day^2
Epoch rev:           20307
Checksum:              312

Satellite: GENESAT1
Catalog number: 29655
Epoch time:      09266.47770912
Element set:    0822
Inclination:      040.0235 deg
RA of node:       286.5579 deg
Eccentricity:    0.0002312
Arg of perigee:   182.7418 deg
Mean anomaly:     177.3385 deg
Mean motion:   15.67605070 rev/day
Decay rate:     1.2700e-04 rev/day^2
Epoch rev:           15789
Checksum:              313

Satellite: CP3
Catalog number: 31129
Epoch time:      09267.66975367
Element set:     215
Inclination:      097.9793 deg
RA of node:       315.9322 deg
Eccentricity:    0.0102369
Arg of perigee:   337.6477 deg
Mean anomaly:     022.0270 deg
Mean motion:   14.52163412 rev/day
Decay rate:        6.3e-07 rev/day^2
Epoch rev:           12932
Checksum:              305

Satellite: CO-65
Catalog number: 32785
Epoch time:      09267.20631362
Element set:     479
Inclination:      097.9354 deg
RA of node:       330.3035 deg
Eccentricity:    0.0016131
Arg of perigee:   070.3831 deg
Mean anomaly:     289.9117 deg
Mean motion:   14.81519158 rev/day
Decay rate:       1.10e-06 rev/day^2
Epoch rev:            7610
Checksum:              297

Satellite: KKS-1
Catalog number: 33493
Epoch time:      09267.70651027
Element set:     784
Inclination:      098.0646 deg
RA of node:       020.3942 deg
Eccentricity:    0.0018839
Arg of perigee:   280.7358 deg
Mean anomaly:     079.1742 deg
Mean motion:   14.80732299 rev/day
Decay rate:       2.44e-06 rev/day^2
Epoch rev:            3619
Checksum:              323

Satellite: SOHLA-1
Catalog number: 33496
Epoch time:      09267.87194857
Element set:     750
Inclination:      098.0448 deg
RA of node:       015.6597 deg
Eccentricity:    0.0006234
Arg of perigee:   337.6047 deg
Mean anomaly:     022.4881 deg
Mean motion:   14.69446875 rev/day
Decay rate:       -6.0e-08 rev/day^2
Epoch rev:            3591
Checksum:              338

/EX
SB KEPS @ AMSAT  $ORB09267.W
Orbital Elements  09267.WEATHER

HR AMSAT ORBITAL ELEMENTS FOR WEATHER SATELLITES
FROM WA5QGD FORT WORTH,TX September 24, 2009
Send Subscribe/unsubscribe to KEPS at 
http://www.amsat.org/mailman/listinfo/keps
BID: ORB09267.W
TO ALL RADIO AMATEURS BT

Satellite: NOAA-10
Catalog number: 16969
Epoch time:      09266.64433572
Element set:    0772
Inclination:      098.6860 deg
RA of node:       292.7331 deg
Eccentricity:    0.0011488
Arg of perigee:   271.0506 deg
Mean anomaly:     088.9342 deg
Mean motion:   14.27394413 rev/day
Decay rate:       -7.2e-07 rev/day^2
Epoch rev:           19755
Checksum:              332

Satellite: NOAA-11
Catalog number: 19531
Epoch time:      09266.71464948
Element set:    0790
Inclination:      098.7821 deg
RA of node:       355.1361 deg
Eccentricity:    0.0011417
Arg of perigee:   184.4351 deg
Mean anomaly:     175.6717 deg
Mean motion:   14.14904356 rev/day
Decay rate:       1.59e-06 rev/day^2
Epoch rev:           08345
Checksum:              318

Satellite: NOAA-12
Catalog number: 21263
Epoch time:      09266.92945031
Element set:    0286
Inclination:      098.7750 deg
RA of node:       275.0474 deg
Eccentricity:    0.0011536
Arg of perigee:   217.0924 deg
Mean anomaly:     142.9458 deg
Mean motion:   14.25594172 rev/day
Decay rate:        3.1e-07 rev/day^2
Epoch rev:           95446
Checksum:              311

Satellite: MET-3/5
Catalog number: 21655
Epoch time:      09267.89660305
Element set:     658
Inclination:      082.5578 deg
RA of node:       136.0787 deg
Eccentricity:    0.0012774
Arg of perigee:   295.8852 deg
Mean anomaly:     064.0954 deg
Mean motion:   13.17021059 rev/day
Decay rate:        5.1e-07 rev/day^2
Epoch rev:           87075
Checksum:              335

Satellite: MET-2/21
Catalog number: 22782
Epoch time:      09267.68324793
Element set:     573
Inclination:      082.5428 deg
RA of node:       103.0919 deg
Eccentricity:    0.0023816
Arg of perigee:   068.9574 deg
Mean anomaly:     291.4122 deg
Mean motion:   13.83638293 rev/day
Decay rate:        9.0e-08 rev/day^2
Epoch rev:           81136
Checksum:              325

